Weather History for Lanai City, HI

Change the Weather History Date:

Thursday, October 6, 2011

  Actual Average Record
Temperature  
Mean Temperature 72 °F -  
Max Temperature 79 °F 82 °F 86 °F (2001)
Min Temperature 65 °F 66 °F 61 °F (1949)
Cooling Degree Days 7    
Growing Degree Days 22 (Base 50)    
Moisture  
Dew Point 65 °F    
Average Humidity 77    
Maximum Humidity 87    
Minimum Humidity 61    
Precipitation  
Precipitation 0.01 in - - ()
Sea Level Pressure  
Sea Level Pressure 30.06 in    
Wind  
Wind Speed 5 mph (NE)    
Max Wind Speed 13 mph    
Max Gust Speed -    
Visibility 10 miles    
Events Rain    
Averages and records for this station are not official NWS values.
T = Trace of Precipitation, MM = Missing Value Source: NWS Daily Summary

Daily Weather History Graph

Daily Weather History Graph

Search for Another Location

Airport:

Trip Planner

Search our weather history database for the weather conditions in past years. The results will help you decide how hot, cold, wet, or windy it might be!

Date:

Astronomy

Oct. 06, 2011 Rise Set
Actual Time 6:20 AM HST 6:11 PM HST
Civil Twilight 5:58 AM HST 6:33 PM HST
Nautical Twilight 5:32 AM HST 6:59 PM HST
Astronomical Twilight 5:06 AM HST 7:24 PM HST
Moon 2:59 PM HST (10/6) 1:55 AM HST (10/6)
Length of Visible Light 12h 35m
Length of Day
11h 51m
Waxing Gibbous, 77% of the Moon is Illuminated
Oct 6
Waxing Gibbous
Oct 11
Full
Oct 19
Last Quarter
Oct 26
New
Nov 2
First Quarter

Hourly Weather History & Observations

Time (HST) Temp. Dew Point Humidity Pressure Visibility Wind Dir Wind Speed Gust Speed Precip Events Conditions
12:56 AM 66.9 °F 61.9 °F 84% 30.06 in 10.0 mi NE 6.9 mph - N/A   Clear
1:56 AM 65.8 °F 61.9 °F 87% 30.04 in 10.0 mi NE 3.5 mph - N/A   Clear
2:56 AM 68.0 °F 63.0 °F 84% 30.03 in 10.0 mi NE 5.8 mph - N/A   Mostly Cloudy
3:56 AM 68.9 °F 63.9 °F 84% 30.03 in 10.0 mi NNE 6.9 mph - N/A   Scattered Clouds
4:56 AM 68.0 °F 63.9 °F 87% 30.04 in 10.0 mi Calm Calm - N/A   Mostly Cloudy
5:56 AM 68.9 °F 64.9 °F 87% 30.04 in 9.0 mi Calm Calm - 0.00 in Rain Light Rain
6:56 AM 68.9 °F 64.9 °F 87% 30.06 in 10.0 mi NNE 5.8 mph - 0.00 in   Clear
7:56 AM 72.9 °F 65.8 °F 79% 30.07 in 10.0 mi NNE 3.5 mph - N/A   Clear
8:56 AM 74.8 °F 63.9 °F 69% 30.07 in 10.0 mi WSW 5.8 mph - N/A   Clear
9:56 AM 74.8 °F 64.9 °F 71% 30.07 in 10.0 mi West 6.9 mph - N/A   Mostly Cloudy
10:27 AM 75.2 °F 64.4 °F 69% 30.12 in 10.0 mi West 5.8 mph - N/A   Mostly Cloudy
10:37 AM 75.2 °F 66.2 °F 73% 30.12 in 10.0 mi West 5.8 mph - N/A   Mostly Cloudy
10:56 AM 75.9 °F 65.8 °F 71% 30.07 in 10.0 mi Calm Calm - N/A   Overcast
11:56 AM 79.9 °F 66.9 °F 64% 30.04 in 10.0 mi South 8.1 mph - N/A   Partly Cloudy
12:23 PM 77.0 °F 66.2 °F 69% 30.10 in 10.0 mi Variable 3.5 mph - 0.00 in Rain Light Rain
12:40 PM 73.4 °F 68.0 °F 83% 30.09 in 5.0 mi Variable 4.6 mph - 0.00 in Rain Light Rain
12:56 PM 74.8 °F 68.9 °F 82% 30.03 in 10.0 mi North 3.5 mph - 0.00 in Rain Light Rain
1:40 PM 77.0 °F 66.2 °F 69% 30.06 in 10.0 mi Variable 5.8 mph - 0.00 in   Mostly Cloudy
1:56 PM 78.8 °F 64.4 °F 61% 30.05 in 10.0 mi NNE 11.5 mph - N/A   Mostly Cloudy
2:56 PM 77.9 °F 63.9 °F 62% 29.98 in 10.0 mi NNE 9.2 mph - N/A   Mostly Cloudy
3:11 PM 75.2 °F 66.2 °F 73% 30.04 in 10.0 mi SW 6.9 mph - N/A   Overcast
3:32 PM 78.8 °F 66.2 °F 65% 30.04 in 10.0 mi Variable 5.8 mph - N/A   Scattered Clouds
3:43 PM 78.8 °F 64.4 °F 61% 30.04 in 10.0 mi SE 8.1 mph - N/A   Mostly Cloudy
3:56 PM 77.0 °F 64.9 °F 66% 29.99 in 10.0 mi SSE 9.2 mph - N/A   Mostly Cloudy
4:16 PM 77.0 °F 66.2 °F 69% 30.05 in 10.0 mi South 10.4 mph - N/A   Mostly Cloudy
4:23 PM 75.2 °F 66.2 °F 73% 30.05 in 10.0 mi SE 5.8 mph - N/A   Mostly Cloudy
4:56 PM 75.2 °F 66.2 °F 73% 30.05 in 10.0 mi Calm Calm - N/A   Scattered Clouds
5:24 PM 75.2 °F 66.2 °F 73% 30.06 in 10.0 mi Calm Calm - N/A   Mostly Cloudy
5:56 PM 73.9 °F 64.9 °F 73% 30.02 in 10.0 mi NE 11.5 mph - N/A   Overcast
6:18 PM 73.4 °F 64.4 °F 73% 30.08 in 10.0 mi ENE 9.2 mph - N/A   Mostly Cloudy
6:56 PM 72.0 °F 65.8 °F 81% 30.03 in 10.0 mi ENE 12.7 mph - N/A   Clear
7:56 PM 70.9 °F 65.8 °F 84% 30.04 in 10.0 mi NE 12.7 mph - N/A   Clear
8:56 PM 70.9 °F 64.9 °F 81% 30.06 in 10.0 mi NE 9.2 mph - N/A   Clear
9:56 PM 70.0 °F 64.9 °F 84% 30.06 in 10.0 mi NE 4.6 mph - N/A   Scattered Clouds
9:59 PM 69.8 °F 64.4 °F 83% 30.13 in 10.0 mi NE 5.8 mph - N/A   Mostly Cloudy
10:24 PM 71.6 °F 66.2 °F 83% 30.12 in 10.0 mi Calm Calm - N/A   Overcast
10:44 PM 69.8 °F 64.4 °F 83% 30.12 in 10.0 mi Calm Calm - N/A   Scattered Clouds
10:56 PM 68.9 °F 63.9 °F 84% 30.06 in 10.0 mi Calm Calm - N/A   Partly Cloudy
11:15 PM 69.8 °F 64.4 °F 83% 30.12 in 10.0 mi ENE 4.6 mph - N/A   Mostly Cloudy
11:48 PM 69.8 °F 64.4 °F 83% 30.10 in 10.0 mi Calm Calm - 0.01 in   Mostly Cloudy
11:56 PM 68.9 °F 64.9 °F 87% 30.04 in 10.0 mi Calm Calm - 0.01 in   Scattered Clouds